Dewpoint
50 54 50 46 39 38 34 36 40 38 36 34 37 36 33 36 36 35 61 65 67 68 70 70 71 72 72 72 72 72 72 72 72 71 71 71 71 70 70 71 72 71 71 70 70 70 70 70 70
50 52 47 44 37 32 33 37 37 37 37 35 36 37 35 40 55 60 62 67 68 69 70 69 70 71 72 72 72 72 72 72 71 71 71 71 71 71 71 71 71 70 70 70 70 70 69 68 68
52 49 43 41 36 32 32 35 37 37 37 36 34 37 37 40 56 59 64 68 69 69 69 69 69 71 72 72 72 71 72 72 72 71 71 71 71 71 71 71 70 70 70 70 69 69 67 65 64
50 48 44 38 34 36 36 36 36 38 37 34 33 33 47 54 58 61 67 68 69 69 69 68 70 71 72 71 71 71 71 71 71 71 71 70 70 69 69 69 67 66 66 66 66 64 63 60 57
46 45 38 36 34 37 39 39 38 37 36 35 33 32 41 51 62 66 67 68 67 68 68 69 69 70 71 71 71 71 70 70 70 70 70 70 69 68 68 66 65 64 64 65 63 61 57 55 55
43 41 34 33 33 37 38 39 37 35 34 34 33 33 39 54 62 65 67 67 66 68 69 69 67 68 69 69 69 70 69 69 70 70 69 67 66 66 65 65 65 65 63 61 58 56 55 55 54
41 38 32 30 33 35 37 35 34 33 33 33 35 38 41 53 60 64 65 66 67 67 68 68 68 67 66 67 67 68 69 68 68 68 67 66 66 66 66 65 63 60 57 55 55 54 54 53 53
39 37 30 29 32 33 32 30 32 30 31 35 35 35 38 47 60 64 64 65 64 65 66 68 67 66 66 66 64 66 67 67 66 65 64 63 63 63 62 61 59 55 54 55 54 54 53 52 51
38 34 31 32 32 32 32 28 29 28 33 33 37 40 49 58 61 62 63 63 64 65 65 66 67 66 65 65 63 63 64 63 62 61 60 58 56 54 55 57 56 54 55 53 52 50 49 48 49
36 33 32 34 34 32 33 27 26 28 26 28 37 37 37 58 58 57 59 60 61 63 65 65 65 65 65 66 65 63 62 61 61 60 58 54 52 51 51 53 55 55 54 51 50 48 46 43 40
35 33 34 34 35 29 33 27 25 23 24 32 35 35 33 37 51 56 56 56 59 60 64 64 64 64 64 64 64 63 61 60 60 57 58 51 48 47 45 44 42 42 43 39 40 41 40 39 39
28 29 32 33 25 22 21 24 22 23 24 26 29 42 37 29 38 48 55 56 58 60 62 62 63 64 63 63 63 62 61 59 59 57 52 51 46 44 43 42 41 40 40 39 39 40 40 39 39
22 22 23 23 23 21 22 21 21 20 22 23 24 25 29 35 29 33 51 56 57 59 61 62 63 63 63 62 62 62 60 58 58 55 50 49 47 45 44 41 41 39 39 38 38 39 39 39 38
22 24 23 22 19 19 18 17 18 16 18 19 21 20 20 21 23 29 33 53 56 59 60 61 62 63 62 63 62 61 59 58 55 53 50 49 49 48 43 40 40 39 39 39 38 38 38 38 38
23 19 19 17 19 17 18 17 15 17 18 17 18 18 19 18 20 23 27 32 48 57 59 61 60 63 62 62 61 60 58 55 55 53 51 51 51 48 42 41 40 39 39 39 38 37 38 37 36
17 16 13 14 19 18 17 16 17 18 17 18 18 18 17 19 23 24 24 23 27 44 58 59 62 61 61 61 60 59 57 55 54 52 51 49 48 45 42 40 40 40 39 38 37 37 37 36 36
16 11 13 15 19 20 18 17 19 23 21 20 22 25 26 26 28 28 27 27 28 39 52 58 59 60 60 59 58 57 57 55 54 53 53 51 49 45 42 41 40 39 37 37 36 36 36 35 37
11 13 15 15 18 20 18 17 22 24 24 24 26 27 28 29 29 30 31 31 30 35 51 56 57 59 59 57 56 55 54 54 53 51 52 50 49 47 45 43 41 39 37 36 35 36 36 35 38
19 18 18 19 21 20 17 18 22 24 26 26 27 27 28 29 30 31 32 32 33 33 33 40 56 56 57 55 53 52 51 52 51 51 51 50 48 46 43 40 38 38 36 35 35 36 34 35 38
23 20 19 18 20 18 17 19 23 25 25 24 24 24 26 27 28 29 29 30 31 33 34 34 39 57 57 55 53 52 51 51 50 50 49 48 46 43 41 39 38 37 35 34 35 35 35 35 36
20 19 18 17 18 16 15 12 19 23 20 18 19 21 22 25 26 27 28 28 30 31 33 34 36 51 55 52 49 48 47 47 46 46 46 45 44 43 40 39 39 37 35 34 34 34 34 33 34
18 21 20 19 16 12 15 3 18 21 17 17 17 18 20 22 25 26 26 27 28 30 32 34 39 52 51 50 49 48 47 45 46 45 44 44 44 43 42 39 38 37 36 34 34 34 34 34 33
20 21 19 18 16 16 14 10 11 19 15 16 17 17 18 20 25 26 26 25 26 29 31 32 35 37 44 49 48 47 46 46 45 44 44 44 44 44 42 40 39 37 36 35 34 34 33 34 33
21 18 14 19 17 2 11 12 4 20 18 18 17 16 18 20 23 27 25 24 25 27 30 32 33 33 36 41 46 46 45 44 43 43 43 42 42 42 42 41 39 36 36 35 34 34 33 34 34
19 14 -1 -4 -2 2 13 13 11 21 19 17 15 16 18 20 22 26 25 23 24 26 28 30 32 33 34 35 38 42 43 43 43 42 43 42 41 41 40 40 38 38 35 35 34 34 34 33 33
19 15 4 -15 -4 5 15 13 17 21 23 20 20 18 18 19 22 25 27 24 24 25 27 29 30 31 33 34 34 37 40 42 42 42 43 42 42 42 42 41 39 36 35 34 34 34 34 34 33
19 14 14 5 3 5 13 17 17 13 22 22 18 15 16 18 21 24 26 24 24 25 27 29 29 30 32 33 34 34 36 38 40 40 41 42 42 42 40 39 37 36 35 35 34 34 33 34 33
21 21 15 11 3 4 7 13 13 10 12 21 19 14 15 18 20 23 26 23 22 24 26 27 29 29 30 32 33 33 33 35 38 39 39 39 39 39 40 39 37 36 35 34 34 33 34 33 33
18 17 18 17 12 0 -3 6 16 16 9 19 17 18 17 18 19 22 25 24 21 22 24 26 28 29 29 31 32 32 33 32 34 36 37 38 38 37 37 37 37 36 34 34 34 34 33 33 32
13 19 18 11 7 12 9 8 9 14 14 16 16 20 21 21 20 23 24 26 21 21 22 24 26 28 29 30 31 31 32 32 31 31 34 35 36 36 36 36 36 35 35 34 34 33 33 33 32
Lifted_Index
6 4 3 2 2 2 2 2 1 1 1 2 2 3 3 2 1 -1 -3 -4 -4 -5 -6 -6 -6 -6 -6 -6 -6 -5 -5 -5 -5 -5 -4 -4 -4 -4 -4 -4 -4 -4 -4 -4 -4 -3 -3 -3 -2
5 4 2 2 2 2 2 2 1 1 1 2 2 2 2 1 -1 -2 -3 -4 -5 -5 -6 -6 -6 -6 -6 -6 -6 -5 -5 -5 -5 -5 -5 -4 -4 -4 -4 -4 -4 -4 -4 -4 -3 -3 -2 -2 -2
4 3 2 2 2 2 2 1 1 1 1 1 1 2 1 -0 -2 -4 -4 -5 -5 -5 -6 -5 -5 -6 -6 -6 -6 -5 -5 -5 -5 -5 -5 -4 -4 -4 -4 -4 -3 -3 -3 -3 -2 -1 -1 0 1
3 3 2 2 2 2 1 1 1 1 1 1 1 1 0 -2 -4 -5 -5 -5 -5 -5 -5 -5 -5 -6 -6 -6 -6 -5 -5 -5 -5 -4 -4 -4 -4 -3 -3 -2 -2 -1 -1 -1 -0 1 2 2 3
3 3 3 3 2 2 1 0 0 0 1 1 1 1 -0 -2 -4 -5 -6 -6 -5 -5 -5 -5 -6 -6 -6 -6 -6 -5 -5 -5 -4 -4 -4 -4 -3 -2 -1 -1 -0 0 1 1 1 2 2 3 2
2 3 3 3 2 2 1 0 0 1 1 1 1 1 0 -2 -5 -6 -6 -6 -6 -5 -5 -6 -6 -6 -5 -5 -5 -5 -5 -4 -4 -4 -3 -3 -2 -1 -1 -0 0 1 1 1 2 2 2 2 2
2 3 3 3 3 2 1 1 1 1 1 1 1 1 0 -2 -5 -6 -6 -6 -6 -5 -5 -6 -6 -5 -5 -5 -5 -5 -4 -4 -3 -3 -2 -1 -1 -1 -0 1 1 1 1 1 2 2 3 4 5
3 3 3 3 3 2 1 1 1 1 1 0 0 0 -0 -2 -4 -6 -6 -6 -6 -5 -5 -5 -5 -5 -5 -5 -5 -5 -4 -3 -3 -2 -1 -0 -0 0 1 1 1 1 1 2 3 5 7 9 10
3 4 4 4 3 2 1 1 1 1 0 0 0 0 -1 -2 -4 -5 -5 -5 -5 -5 -5 -5 -5 -4 -4 -5 -5 -4 -4 -3 -2 -1 -0 0 1 1 1 1 1 1 2 4 6 9 11 13 13
4 4 4 4 3 2 2 1 2 2 1 1 1 1 -0 -2 -4 -4 -4 -4 -5 -4 -4 -4 -4 -4 -4 -4 -4 -4 -4 -3 -2 -1 -1 0 1 1 1 1 1 3 4 7 10 12 14 15 15
5 5 5 4 4 3 2 2 2 2 2 2 1 1 1 -0 -2 -3 -3 -4 -4 -4 -4 -4 -3 -3 -3 -3 -4 -4 -4 -3 -2 -2 -1 -0 0 1 1 1 3 5 8 11 13 14 15 15 15
5 5 5 5 4 3 2 2 3 3 3 3 2 2 2 1 1 -0 -2 -3 -3 -4 -4 -4 -3 -2 -2 -2 -3 -3 -4 -3 -3 -2 -2 -1 -0 0 0 2 5 8 12 14 15 15 15 15 15
6 5 5 5 4 4 3 2 3 4 5 5 4 3 3 2 2 2 0 -1 -3 -4 -4 -4 -3 -2 -2 -2 -2 -3 -4 -4 -3 -2 -2 -1 -1 -0 1 3 7 11 14 14 15 15 15 15 15
6 6 5 5 4 4 3 2 2 3 5 5 5 4 4 4 3 4 3 1 -1 -3 -3 -3 -3 -3 -3 -3 -3 -3 -3 -3 -3 -2 -2 -1 -1 -0 1 5 10 13 14 15 14 14 15 15 15
6 5 5 5 5 4 3 2 2 3 4 5 5 5 5 5 5 5 5 4 2 -1 -2 -3 -3 -3 -3 -3 -3 -3 -3 -3 -3 -2 -2 -1 -1 1 3 7 11 14 14 14 14 14 15 15 15
5 4 4 5 5 5 4 3 2 3 4 4 5 5 6 6 6 7 6 6 4 2 -0 -2 -3 -2 -2 -2 -2 -2 -2 -2 -2 -2 -1 -1 0 2 5 9 12 14 14 14 14 14 14 14 15
3 3 3 4 5 5 4 4 4 4 4 4 4 4 5 6 6 7 7 7 6 4 2 -1 -3 -2 -2 -2 -2 -2 -1 -1 -1 -1 -1 -0 1 3 6 8 10 13 14 14 14 14 14 14 14
3 2 3 4 5 5 4 4 5 5 5 4 4 5 5 5 6 6 7 7 7 5 3 -0 -2 -2 -2 -2 -2 -1 -1 -1 -1 -1 -1 0 2 3 4 6 9 12 14 14 14 14 14 14 15
3 2 3 4 5 5 4 4 5 5 5 5 5 5 5 5 6 7 7 7 7 6 4 1 -1 -2 -2 -2 -2 -1 -1 -1 -1 -1 -0 0 1 2 4 7 10 13 14 14 14 14 14 14 15
3 3 3 4 5 5 4 4 4 5 5 5 5 5 6 6 6 7 7 7 7 6 5 3 1 -1 -1 -2 -2 -1 -1 -1 -1 -1 0 1 2 3 5 9 12 13 14 14 14 14 14 14 15
3 3 3 4 4 4 4 3 3 4 5 5 5 6 6 6 6 7 7 7 7 7 6 4 2 1 -1 -1 -2 -1 -1 -1 -0 0 1 2 3 4 6 9 11 12 13 14 14 14 15 15 15
4 4 4 4 4 3 3 3 3 4 5 5 6 6 6 6 7 7 7 7 8 8 7 6 3 2 0 -1 -1 -1 -1 -0 0 1 1 2 3 5 6 9 11 12 13 14 14 15 15 15 15
5 5 5 5 3 3 3 2 3 3 4 5 6 6 7 8 8 8 8 8 8 8 8 6 4 3 1 0 -0 -1 -0 0 1 1 1 2 3 4 5 8 10 11 13 14 14 14 15 15 15
5 5 4 4 3 2 2 2 3 3 4 5 6 7 8 9 9 9 9 9 9 8 8 7 5 4 3 2 1 0 0 1 1 2 2 3 3 3 4 6 8 10 12 13 14 14 15 15 15
5 4 3 2 2 2 3 3 3 4 5 5 6 7 8 9 10 10 10 10 10 10 9 8 7 6 5 4 2 1 1 1 2 2 3 3 4 4 4 5 7 9 10 12 14 14 14 15 15
5 4 3 2 1 2 3 3 4 5 5 6 6 7 9 9 10 10 10 10 10 10 10 10 9 8 8 7 5 4 3 2 2 3 4 4 5 5 5 6 7 8 10 12 13 14 14 14 14
5 4 4 3 2 2 3 4 4 5 5 5 6 7 8 9 9 10 10 10 11 11 11 11 11 10 10 9 8 7 6 5 4 4 4 5 5 6 7 7 7 8 9 11 13 13 14 14 14
5 4 4 3 2 1 2 3 4 5 5 5 5 6 8 8 9 9 10 11 12 12 12 12 11 11 11 10 10 9 8 7 6 5 4 5 5 6 7 8 7 7 9 11 12 13 13 13 13
4 4 4 3 2 2 2 3 4 5 5 5 5 6 7 8 8 9 11 12 13 13 13 13 12 12 11 11 11 10 9 9 8 6 5 5 5 6 6 7 8 7 9 11 12 12 13 13 12
4 4 4 3 3 3 2 3 5 5 5 5 5 6 7 7 8 9 10 12 13 13 13 13 13 12 12 12 11 11 10 9 8 8 6 5 5 6 6 7 8 8 8 10 11 12 13 13 12